Theta_e
316 324 326 327 330 332 336 333 331 332 332 332 333 346 350 347 357 363 361 362 360 359 357 344 343 344 343 341 340 339 336 333 330 329 335 339 340 337 334 332 332 327 325 329 334 334 335 335 334
323 324 325 328 330 335 335 331 331 330 329 330 332 340 348 342 346 354 361 361 361 361 360 349 344 344 344 343 341 338 336 333 329 323 326 333 335 335 334 335 332 332 329 332 334 339 342 341 342
317 325 327 331 333 334 332 329 329 329 329 330 336 341 336 335 346 357 359 359 361 362 361 356 345 344 344 343 340 338 336 333 329 324 323 325 327 329 332 335 334 330 329 330 334 340 338 333 332
323 324 325 329 333 331 329 328 327 329 330 330 334 335 330 345 351 357 357 357 359 361 362 355 348 344 344 343 340 338 335 333 331 327 324 323 325 326 329 332 333 331 328 328 333 337 335 334 331
321 325 329 331 332 328 327 325 326 328 329 329 332 333 328 338 351 354 353 353 354 355 361 350 346 344 344 341 340 338 335 334 333 330 327 325 323 324 327 330 331 331 328 326 330 334 334 333 333
323 324 328 330 330 326 326 324 325 326 326 326 330 330 327 325 331 345 349 350 349 352 355 356 346 344 343 341 340 338 336 334 334 332 330 328 326 324 325 327 329 330 328 326 326 329 330 331 327
323 327 327 328 328 326 325 323 324 324 324 325 325 330 327 324 323 325 340 345 347 348 352 357 356 352 346 344 342 340 338 336 334 334 333 331 329 327 325 325 327 328 328 327 327 328 329 328 328
322 325 326 326 326 326 324 322 322 323 324 323 324 327 326 322 322 324 325 330 338 340 345 348 354 360 357 355 351 345 341 338 337 336 335 334 331 329 328 325 325 326 327 327 327 327 327 328 331
320 324 325 325 324 325 323 323 322 321 322 322 322 322 321 321 323 324 325 325 325 328 337 340 346 353 353 352 356 353 352 343 340 338 337 336 334 337 332 329 326 325 325 325 325 327 329 329 331
322 325 325 324 323 324 322 322 321 321 322 322 322 321 321 321 321 323 323 324 324 324 324 328 347 348 348 348 353 355 356 353 350 346 344 339 342 344 345 344 342 337 327 326 325 325 326 329 331
323 325 323 321 322 321 322 321 320 321 322 322 320 319 319 320 320 321 322 322 323 322 322 323 325 341 347 346 352 348 350 353 354 353 352 351 350 348 346 345 346 343 336 329 336 330 326 329 339
322 322 322 321 320 320 321 320 320 320 320 319 318 318 318 319 319 320 320 321 321 322 323 323 323 326 340 343 338 343 342 346 348 351 353 350 351 350 349 348 346 346 346 346 344 340 343 341 340
323 321 320 319 319 319 319 320 320 320 319 319 319 319 319 319 319 320 320 321 322 322 323 324 325 326 324 331 334 337 339 339 346 346 347 349 352 349 350 349 349 346 345 345 343 342 340 340 339
320 320 321 319 320 320 320 320 320 320 319 319 319 320 320 320 321 322 323 325 325 325 324 325 327 323 317 317 322 330 336 337 341 342 343 350 349 349 349 349 350 348 346 344 342 342 342 339 338
320 321 321 321 320 320 319 321 321 320 319 320 320 320 320 321 323 325 326 325 326 327 328 329 327 326 324 317 317 331 330 330 337 336 343 344 350 353 351 349 349 348 346 343 341 343 343 342 340
321 321 322 323 321 320 319 321 322 321 320 320 320 320 322 323 324 325 325 325 327 328 330 331 331 324 316 316 316 327 329 331 332 337 335 346 340 348 347 349 347 346 344 347 346 341 344 343 342
323 322 322 322 322 321 321 322 322 321 321 321 321 321 323 323 324 325 324 325 326 328 331 332 330 328 326 319 316 318 329 334 331 334 334 336 346 343 345 344 344 343 342 345 344 345 346 343 339
322 321 321 322 323 322 322 322 323 321 322 321 320 322 323 324 324 324 325 325 326 328 330 332 333 332 322 320 320 319 323 331 334 333 332 335 341 341 343 341 344 343 342 343 341 342 344 344 341
321 322 322 323 323 322 323 323 323 322 322 322 321 323 323 323 323 324 324 325 326 328 329 330 332 333 334 332 331 329 326 325 329 333 333 338 339 340 342 340 341 340 339 339 336 340 340 343 342
322 323 323 323 322 322 322 323 323 324 322 320 322 322 323 323 323 324 324 324 325 326 327 328 330 334 335 334 330 329 328 325 327 330 332 337 339 342 341 339 337 334 332 331 332 335 336 337 339
323 322 323 321 321 322 323 323 323 322 320 321 322 322 323 323 323 323 323 324 324 324 325 326 328 331 334 335 331 325 327 330 328 328 334 339 342 341 340 341 339 325 328 331 330 332 337 336 338
321 321 321 321 322 323 323 323 322 323 322 322 322 322 322 323 321 320 321 322 322 322 323 325 326 328 331 334 334 328 331 334 330 327 332 332 334 338 340 335 329 334 335 335 334 333 335 334 332
320 320 321 321 323 324 322 323 323 321 321 321 321 320 320 322 320 319 319 319 320 321 322 324 325 326 326 333 336 334 334 335 334 331 331 336 335 331 336 328 333 338 339 338 337 336 336 334 332
320 321 322 323 322 322 323 322 321 321 321 320 320 319 319 321 320 318 319 319 319 320 321 323 323 324 325 331 334 336 337 340 339 335 333 331 330 331 329 326 338 338 335 332 335 335 334 334 330
321 322 323 321 321 321 320 320 320 321 321 320 319 318 319 320 319 318 318 318 318 320 321 321 322 324 323 324 330 334 335 335 338 335 331 328 328 327 334 328 324 325 330 331 333 333 332 332 333
320 322 322 323 321 319 320 321 321 321 320 319 319 319 320 320 318 317 317 317 320 321 322 319 322 323 322 323 324 327 331 333 334 335 337 337 336 338 334 333 332 336 335 334 332 333 330 331 333
320 321 321 321 321 322 321 320 319 320 319 319 319 319 318 318 317 317 317 318 319 318 319 319 321 322 322 320 319 324 324 327 328 328 329 331 332 328 323 324 331 331 328 325 326 332 331 332 330
320 320 320 321 323 322 320 319 319 318 317 319 320 319 318 318 317 317 317 317 316 316 316 319 319 320 320 319 316 320 322 324 326 326 327 328 330 329 330 330 327 321 323 325 325 327 327 331 332
319 319 319 319 320 320 320 319 319 318 319 320 319 317 315 315 316 317 317 317 316 316 316 316 316 317 317 317 316 316 319 322 324 324 326 325 326 327 324 323 322 323 324 325 326 327 329 329 328
316 316 317 324 320 319 325 322 317 317 317 318 318 317 316 316 317 318 317 316 316 315 315 316 316 316 316 317 314 316 316 320 322 324 323 321 320 322 321 322 323 323 323 324 325 326 326 325 325
Wind_Speed
2 7 7 8 7 8 10 8 3 7 4 11 7 12 11 21 19 4 13 8 10 5 1 7 7 7 5 4 2 1 1 1 1 3 5 6 5 3 4 5 6 7 8 11 10 9 9 10 10
2 6 7 11 8 11 4 6 6 7 8 8 1 4 4 16 16 15 12 9 8 4 3 8 8 7 5 3 2 1 1 1 2 3 5 6 5 5 5 6 7 8 9 11 10 9 9 9 10
2 6 13 9 12 11 8 8 7 6 4 6 2 11 12 10 12 11 10 11 8 5 7 9 8 7 5 4 4 3 2 3 4 4 5 6 6 7 7 8 9 9 10 12 11 10 9 9 10
1 7 11 10 17 6 10 8 6 7 5 5 4 13 11 9 5 7 6 8 8 6 4 4 8 7 6 5 5 4 3 4 5 5 5 6 7 8 9 10 10 10 11 12 13 12 12 11 11
8 13 9 15 5 4 2 5 4 4 3 7 5 10 11 10 7 4 4 5 5 4 2 5 7 8 7 7 7 6 5 6 6 6 6 7 7 9 10 11 12 11 12 13 14 15 14 14 14
14 11 13 14 10 5 1 4 5 3 5 6 2 5 7 8 9 5 2 2 2 2 1 5 6 7 8 8 8 8 8 8 7 7 7 8 9 9 11 12 13 13 14 14 15 16 17 17 17
15 10 15 14 12 6 5 6 5 6 5 8 8 8 8 9 9 6 3 3 3 1 2 2 8 5 9 9 9 10 10 10 10 10 10 10 10 11 12 13 13 14 15 16 17 17 18 18 18
12 8 9 7 8 5 6 8 2 4 9 4 6 3 9 9 8 6 5 4 5 5 4 5 7 6 10 7 10 11 12 12 13 13 13 13 13 13 14 14 15 16 17 17 18 19 19 19 19
8 10 11 3 4 8 4 8 3 2 7 3 5 6 6 8 8 8 7 7 7 6 8 9 8 3 8 8 11 14 15 15 15 16 16 16 16 14 15 16 17 17 18 19 19 20 20 20 20
12 10 11 10 8 5 3 8 5 7 5 5 5 6 8 9 9 9 10 10 11 11 10 9 6 7 10 10 13 13 11 14 13 14 15 17 15 13 13 15 18 18 19 20 21 21 22 22 21
3 4 7 4 5 6 3 6 3 8 9 6 9 14 13 13 12 11 12 12 12 12 12 12 12 10 13 14 15 10 14 13 14 13 13 14 13 14 14 14 16 18 19 22 19 21 23 23 18
6 6 2 5 3 4 3 6 9 4 8 6 11 13 14 14 13 12 13 14 14 14 14 13 13 11 10 14 16 16 17 18 13 16 15 16 18 14 15 15 14 16 14 15 15 18 18 18 18
5 3 2 3 4 3 3 10 7 8 3 8 12 14 14 13 11 12 11 12 14 15 15 15 14 13 16 15 16 17 18 19 21 16 17 16 18 19 18 17 16 16 15 16 17 18 19 20 20
3 1 4 3 1 6 8 12 9 13 4 10 11 12 12 10 8 9 8 10 11 13 15 16 16 17 19 19 19 18 18 20 21 18 18 16 18 20 20 19 17 16 17 18 18 20 19 20 22
2 9 7 8 3 10 5 19 19 9 7 12 13 11 9 8 7 7 10 12 13 13 14 16 17 15 18 20 19 18 20 21 24 22 19 21 19 18 20 21 17 16 17 20 21 23 18 20 22
10 8 10 14 6 3 8 12 7 2 10 14 11 11 8 6 7 9 10 11 12 13 15 16 15 17 21 21 20 18 21 22 21 20 19 15 23 15 17 17 16 14 20 18 19 25 26 24 23
9 7 7 6 6 4 10 15 13 10 12 14 10 9 7 7 6 9 11 12 14 15 17 18 18 18 19 22 26 22 21 24 23 20 22 20 15 16 15 16 15 17 18 18 19 23 22 26 27
12 11 11 12 8 11 14 17 14 18 16 16 8 5 5 5 5 8 11 13 15 16 17 18 18 19 22 24 23 26 23 24 25 24 21 20 18 18 18 18 21 16 17 19 19 22 23 26 32
10 11 13 12 10 9 15 18 19 21 18 14 8 3 4 5 6 8 10 12 14 16 19 21 22 22 20 20 19 20 23 27 26 26 24 21 18 18 18 19 21 18 20 24 22 23 24 25 26
11 14 14 11 11 15 19 22 20 19 2 3 3 5 5 7 8 9 10 12 14 17 20 22 23 23 23 18 18 19 22 24 26 26 28 27 21 19 18 19 18 20 22 23 25 29 29 28 25
12 12 13 16 18 19 20 19 15 4 3 4 7 5 6 6 9 11 12 13 15 17 19 22 24 24 23 23 18 16 21 23 21 24 18 20 14 18 18 18 20 17 20 21 23 26 26 31 30
12 10 12 17 17 15 17 19 18 7 9 12 9 8 6 7 10 12 15 16 16 17 18 20 23 25 22 21 19 14 17 20 21 25 23 28 29 16 19 19 18 21 20 21 21 22 27 28 33
13 12 16 18 20 19 20 10 4 5 9 8 13 7 6 4 8 16 18 19 18 18 18 20 21 23 23 18 20 14 13 17 18 23 23 10 13 16 17 19 22 17 16 18 21 21 23 26 30
11 14 18 21 17 12 8 5 12 14 17 10 11 12 8 9 11 16 19 20 22 20 20 19 21 21 22 18 16 14 14 12 16 15 15 14 16 16 18 22 16 11 20 22 22 22 23 24 27
10 15 11 7 10 13 9 15 19 12 7 6 11 14 13 11 16 19 24 27 25 24 18 21 21 19 20 19 21 19 12 12 11 9 11 17 15 15 11 16 33 18 23 22 24 26 27 28 28
17 9 7 17 14 20 20 18 6 6 5 7 13 12 14 12 14 20 20 25 24 20 17 18 19 17 19 19 21 25 19 11 8 7 7 10 8 11 18 14 12 10 14 19 23 24 27 27 27
10 13 8 13 16 16 14 14 22 20 17 10 12 16 9 13 16 17 17 18 20 18 18 15 13 15 17 20 15 19 28 22 15 10 8 8 8 9 14 19 19 19 21 24 25 23 23 24 25
11 11 11 8 12 17 16 22 16 18 18 19 26 31 33 16 19 17 14 14 15 17 20 21 17 16 16 20 17 8 21 23 18 15 12 8 10 11 10 12 16 23 25 26 26 24 22 22 21
10 12 13 12 10 15 18 11 22 24 15 18 23 28 25 35 29 19 11 12 15 14 18 21 19 19 20 17 18 11 7 27 17 13 12 15 13 13 15 17 21 23 23 23 22 22 20 22 21
8 12 10 7 13 13 14 17 20 14 12 9 10 13 19 21 22 18 14 11 13 15 18 20 20 21 21 19 17 16 13 24 18 16 13 14 15 17 19 19 19 21 22 22 20 19 17 18 18
Wind_Direction
325 318 303 274 247 231 245 107 288 23 14 1 349 341 41 42 20 53 73 43 67 120 236 182 182 178 177 173 166 147 141 147 230 255 233 230 234 226 201 193 189 184 182 179 185 194 202 208 212
170 278 273 273 248 244 141 71 31 5 3 335 344 295 30 44 13 71 55 39 59 151 185 186 184 181 183 202 227 237 263 283 267 251 239 237 240 238 219 206 207 202 199 198 202 205 208 216 224
178 258 270 245 246 284 60 68 11 7 19 352 313 32 22 355 16 27 33 40 48 117 148 198 186 187 195 210 219 233 251 264 267 244 236 239 241 241 230 224 223 220 215 213 213 215 216 226 232
274 241 252 260 269 63 3 47 342 8 91 14 346 93 64 37 36 38 39 46 48 80 142 210 187 192 210 233 241 246 249 254 257 256 247 242 239 239 233 235 237 230 227 224 224 226 228 235 240
223 258 244 280 239 74 23 14 331 27 32 7 308 95 68 41 46 50 40 49 67 75 190 179 187 201 214 229 237 250 252 251 253 257 259 250 249 242 239 240 241 240 236 232 231 235 242 249 253
240 256 258 234 173 125 150 332 336 357 44 24 53 122 74 49 37 19 14 37 26 89 133 292 222 224 227 234 238 245 250 253 254 254 252 255 252 247 244 243 241 244 245 243 239 240 246 252 257
249 259 258 285 107 176 25 305 359 328 38 41 334 255 111 26 3 2 350 299 274 247 222 224 318 310 259 251 251 253 254 254 254 254 256 255 254 251 249 247 247 246 248 248 249 249 252 255 258
269 275 274 260 142 205 95 278 327 349 61 314 338 26 45 346 339 335 325 298 272 290 262 252 198 284 317 290 294 272 262 259 257 254 252 254 252 252 253 251 250 251 251 251 252 253 254 257 260
248 251 239 138 303 98 101 281 79 292 282 31 36 35 351 342 335 320 307 298 283 281 270 271 262 211 260 266 260 288 280 262 258 257 256 255 255 256 257 252 252 251 253 256 256 256 257 259 262
251 265 60 38 16 348 9 290 349 276 214 215 319 323 321 318 319 315 310 303 291 294 292 295 221 252 260 254 267 290 291 300 279 257 254 256 248 241 245 258 270 269 260 256 256 258 258 259 259
285 13 86 125 19 310 329 239 317 296 267 37 321 312 311 305 301 301 299 296 294 295 290 287 285 280 266 266 261 253 261 253 279 264 258 252 249 253 251 251 257 273 266 258 261 265 260 254 252
120 60 335 87 149 251 269 348 287 284 316 323 300 309 306 304 301 297 296 296 294 291 285 284 280 288 273 267 260 266 260 260 245 266 248 253 247 248 247 251 250 252 258 263 256 249 258 256 253
91 111 201 167 213 255 320 264 288 271 227 295 306 308 305 303 302 299 302 299 298 294 288 282 284 277 256 248 264 264 260 259 262 245 262 253 247 245 248 248 247 247 254 257 256 256 252 252 251
79 248 182 201 192 228 275 293 257 265 222 291 301 306 298 303 310 311 310 316 316 309 303 290 288 275 265 263 255 252 262 261 258 261 256 253 252 252 247 250 252 255 252 254 249 264 255 258 255
219 240 185 215 270 289 312 273 224 236 271 293 293 303 295 288 311 322 321 319 319 318 316 309 301 298 281 270 267 261 260 259 255 252 251 242 253 251 246 249 251 259 265 264 240 241 256 260 260
236 243 254 155 153 163 246 294 89 307 275 288 296 292 280 290 312 324 326 328 330 326 318 315 312 291 280 277 276 264 255 258 256 255 254 257 279 251 260 257 261 271 273 270 267 257 248 248 257
192 328 334 317 175 306 264 299 294 286 292 290 299 264 280 298 316 330 336 339 340 339 336 328 312 308 292 279 269 263 261 249 250 254 254 245 238 256 252 254 246 251 267 266 267 259 261 256 251
345 332 321 305 332 329 305 294 303 302 293 291 284 244 279 299 334 332 338 344 347 349 348 342 333 315 293 288 279 264 249 251 246 247 248 252 240 245 249 255 263 259 261 264 270 270 266 263 255
318 304 298 296 339 298 297 296 289 295 292 280 247 288 283 305 320 334 337 343 347 350 350 350 344 335 319 298 281 263 249 244 245 242 241 246 243 244 245 254 266 277 271 269 272 271 275 266 268
296 292 296 325 326 320 303 295 294 277 260 308 314 261 280 313 329 336 338 342 345 349 350 349 348 344 335 316 285 258 249 250 244 242 238 225 225 235 240 249 255 265 269 273 273 269 268 268 264
302 312 334 314 310 288 280 292 296 99 159 194 230 244 269 311 328 327 328 330 337 343 350 350 350 347 350 331 310 285 240 241 249 243 227 236 216 230 238 242 253 262 265 275 280 277 271 270 265
310 11 309 300 301 301 312 292 284 261 190 183 232 242 311 320 330 333 332 330 332 333 337 346 350 352 347 360 324 290 249 249 246 245 240 243 224 217 235 243 240 250 261 266 284 286 275 272 267
299 327 300 287 282 289 286 253 189 246 239 249 215 214 279 304 318 331 328 326 322 324 333 339 343 349 358 9 350 310 270 258 251 252 239 200 260 245 231 234 242 256 266 275 280 285 283 277 274
301 286 291 279 259 253 303 312 289 301 315 322 297 333 329 309 324 322 320 317 321 321 326 337 338 347 356 1 13 337 301 275 271 249 244 239 242 249 261 266 259 237 281 281 283 284 287 287 286
282 316 313 298 305 294 340 322 311 328 350 356 330 310 296 326 324 328 323 323 317 313 326 330 331 341 355 360 8 3 335 300 280 269 243 258 260 248 271 267 273 304 278 288 291 292 291 289 285
299 305 293 299 312 310 306 281 322 203 171 339 295 346 338 323 316 320 330 326 332 341 335 318 325 334 355 359 9 12 360 351 311 301 274 303 295 299 279 299 312 318 302 294 290 290 289 289 285
308 279 3 289 285 280 306 321 326 44 21 330 284 229 248 304 314 329 338 340 339 336 331 329 322 336 345 356 355 17 11 1 351 342 323 301 285 292 300 319 329 328 314 303 302 300 289 285 283
227 298 302 301 295 296 303 312 290 7 329 346 7 10 350 303 348 329 323 329 336 329 344 316 9 344 335 340 342 3 0 355 351 355 341 357 334 349 331 307 304 307 311 306 301 296 291 279 284
298 267 270 286 303 305 305 294 337 322 349 357 341 342 337 311 330 319 296 314 325 322 333 343 343 338 344 338 316 333 333 347 347 347 344 351 355 333 309 304 307 308 309 308 303 300 296 288 286
289 290 296 284 292 295 294 282 291 317 16 353 327 298 310 297 327 304 308 344 343 331 333 332 331 329 328 326 317 288 317 339 339 341 330 345 347 333 325 320 312 310 310 309 308 309 303 296 294